#timestamp,LO_Frequency,Hit,StdDev 
1710615615.7,286047005.4,N
1710615635.5,286047003.0,N
1710615655.4,286047007.9,Y
1710615675.2,286047006.4,P
1710615695.0,286047005.3,P
1710615695.9,286047005.3,P
1710615715.8,286047005.5,Y
1710615735.6,286046995.3,P
1710615755.4,286046998.8,N
1710615775.3,286046999.5,N
1710615795.1,286046990.2,N
1710615815.9,286046992.0,N
1710615835.7,286046996.4,N
1710615855.5,286046997.2,N
1710615875.4,286047003.4,N
1710615895.2,286047001.0,N
1710615915.0,286047002.0,N
1710615915.9,286047002.0,N
1710615935.8,286047002.9,N
1710615955.6,286047006.0,N
1710615975.5,286047004.2,N
1710615995.3,286047004.2,N
1710616015.1,286047004.4,N
1710616035.9,286047005.0,N
1710616055.7,286047008.2,N
1710616075.5,286047006.4,N
1710616095.4,286047002.9,N
1710616115.2,286047005.1,N
1710616135.1,286047003.7,N
1710616136.0,286047003.7,N
1710616155.8,286047005.7,N
1710616175.6,286047001.5,N
1710616195.5,286047005.0,N
1710616215.3,286047007.3,N
1710616235.1,286047007.8,N
1710616255.9,286047008.1,N
1710616305.8,286047006.5,E
1710616315.7,286047007.4,N
1710616335.5,286047003.9,P
1710616355.4,286047002.2,N
1710616375.2,286047005.6,N
1710616395.0,286047001.6,N
1710616395.9,286047001.6,N
1710616415.8,286047002.2,N
1710616435.6,286047003.0,N
1710616455.4,286047003.4,N
1710616475.3,286047005.9,Y
1710616495.1,286046998.7,P
1710616515.9,286046999.2,N
1710616535.7,286046995.7,N
1710616555.5,286047005.5,N
1710616575.4,286047006.8,N
1710616595.2,286047007.0,N
1710616615.0,286047008.7,N
1710616615.9,286047008.7,N
1710616635.8,286047006.7,N
1710616655.6,286047008.9,N
1710616675.5,286047010.2,N
1710616695.3,286047012.6,N
1710616715.1,286047011.8,N
1710616735.9,286047012.1,N
1710616755.7,286047013.5,N
1710616775.6,286047015.0,N
1710616825.4,286047016.6,E
1710616835.3,286047006.5,N
1710616855.2,286046995.3,P
1710616875.0,286046995.7,N
1710616875.9,286046995.7,N
1710616895.8,286046996.6,N
1710616915.6,286046997.5,N
1710616935.4,286046997.6,N
1710616955.3,286046996.0,N
1710616975.1,286046995.9,N
1710616995.9,286046997.3,N
1710617015.7,286046995.5,N
1710617035.5,286046995.5,N
1710617055.4,286047001.9,N
1710617075.2,286047001.8,N
1710617095.0,286047001.2,N
1710617096.0,286047001.2,N
1710617115.8,286047006.7,N
1710617135.6,286047005.9,N
1710617155.5,286047003.9,N
1710617175.3,286047000.1,N
1710617195.1,286047008.6,N
1710617215.9,286047008.9,N
1710617235.7,286047005.3,N
1710617255.6,286047006.1,N
1710617275.4,286047008.0,N
1710617295.2,286047009.2,N
1710617315.1,286047007.2,N
1710617316.0,286047007.2,N
1710617335.8,286047001.6,N
1710617355.7,286047003.8,N
1710617375.5,286047011.0,N
1710617395.3,286047012.0,N
1710617415.2,286047008.2,N
1710617435.0,286047005.0,N
1710617435.9,286047005.0,N
1710617455.7,286047014.0,N
1710617475.6,286047013.3,N
1710617495.4,286047008.1,N
1710617515.3,286047012.3,N
1710617535.1,286047008.2,N
1710617555.8,286047006.3,N
1710617575.7,286047011.8,N
1710617595.5,286047010.5,N
1710617615.4,286047006.7,N
1710617635.2,286047005.3,N
1710617655.0,286047009.2,N
1710617655.9,286047009.2,N
1710617675.8,286047009.3,N
1710617695.6,286047008.2,N
1710617715.4,286047014.2,Y
1710617735.3,286047012.3,P
1710617755.1,286047006.4,N
1710617775.9,286047009.0,P
1710617795.7,286047006.7,Y
1710617815.5,286047000.9,P
1710617835.4,286046998.1,N
1710617855.2,286047000.6,N
1710617875.0,286047002.7,N
1710617876.0,286047002.7,N
1710617895.8,286047002.1,N
1710617915.6,286047001.8,N
1710617935.5,286047001.8,N
1710617955.3,286047003.8,N
1710617975.1,286047002.1,N
1710617995.9,286047000.3,N
1710618015.7,286047007.1,N
1710618035.6,286047009.1,Y
1710618055.4,286047004.6,P
1710618075.2,286047007.3,P
1710618095.1,286047004.6,N
1710618096.0,286047004.6,N
1710618115.8,286047004.6,Y
1710618135.7,286047000.4,P
1710618155.5,286046995.1,N
1710618175.3,286046995.2,N
1710618195.2,286046997.9,N
1710618215.0,286047000.7,N
1710618215.9,286047000.7,N
1710618235.8,286046999.0,N
1710618255.6,286046996.8,N
1710618275.4,286047001.1,N
1710618295.3,286047004.4,N
1710618315.1,286046999.6,N
1710618335.8,286047002.7,N
1710618355.7,286047001.8,N
1710618375.5,286047002.4,N
1710618425.4,286047009.2,E
1710618435.3,286047004.6,N
1710618455.1,286046997.2,P
1710618475.9,286046998.6,N
1710618495.7,286046997.8,N
1710618515.6,286046998.0,N
1710618535.4,286047002.4,N
1710618555.2,286047006.3,N
1710618575.1,286046998.3,N
1710618576.0,286046998.3,N
1710618595.8,286046998.9,N
1710618615.6,286046999.3,N
1710618635.5,286046996.9,N
1710618655.3,286046997.3,N
1710618675.2,286046995.4,N
1710618695.9,286046996.7,N
1710618715.7,286046996.7,N
1710618735.6,286046996.6,N
1710618755.4,286046998.5,N
1710618775.2,286046998.7,N
1710618795.1,286046998.6,N
1710618796.0,286046998.6,N
1710618815.8,286046997.8,N
1710618835.7,286046998.1,N
1710618855.5,286046997.3,N
1710618875.3,286046995.6,N
1710618895.2,286046995.4,N
1710618915.0,286047000.0,N
1710618915.9,286047000.0,N
1710618935.8,286046999.0,N
1710618955.6,286046997.0,N
1710618975.4,286046998.4,N
1710618995.3,286046998.3,N
1710619015.1,286046999.5,N
1710619035.8,286047001.6,N
1710619055.7,286047007.6,Y
1710619075.5,286047007.8,P
1710619095.4,286047011.2,N
1710619115.2,286047011.0,N
1710619135.0,286047015.6,Y
1710619135.9,286047015.6,P
1710619155.8,286047005.7,N
1710619175.6,286046999.8,N
1710619195.4,286047002.2,N
